Auburn, Auburn Municipal Airport, United States
Lat: 38.95N, Lon: 121.07W
Local Info
Past Weather Observations for Saturday, November 22, 2014

NOTE: This archive is for the closest National Weather Service station to Auburn, Auburn Municipal Airport. Information may differ from the station used for current weather conditions.

Click here for Long-term Archive

Time Weather Temperature Dewpoint Humidity Pressure Winds Precip Visibility
23:55
Clear
43°F / 6°C 43°F / 6°C 100% 30.24 in
(1024 mb)
ENE 3.5 mph
(ENE 6 kph)
- 10SM
23:35
Clear
39°F / 4°C 39°F / 4°C 100% 30.24 in
(1024 mb)
Calm - 10SM
23:15
Clear
43°F / 6°C 43°F / 6°C 100% 30.24 in
(1024 mb)
Calm - 10SM
22:55
Clear
45°F / 7°C 45°F / 7°C 100% 30.24 in
(1024 mb)
Calm - 10SM
22:35
Clear
45°F / 7°C 45°F / 7°C 100% 30.24 in
(1024 mb)
Calm - 10SM
22:15
Clear
45°F / 7°C 45°F / 7°C 100% 30.24 in
(1024 mb)
Calm - 10SM
21:55
Clear
45°F / 7°C 45°F / 7°C 100% 30.24 in
(1024 mb)
E 4.6 mph
(E 7 kph)
- 10SM
21:35
Clear
45°F / 7°C 45°F / 7°C 100% 30.24 in
(1024 mb)
E 3.5 mph
(E 6 kph)
- 10SM
21:15
Clear
43°F / 6°C 43°F / 6°C 100% 30.21 in
(1023 mb)
Calm - 10SM
20:55
Clear
45°F / 7°C 45°F / 7°C 100% 30.21 in
(1023 mb)
ENE 3.5 mph
(ENE 6 kph)
- 10SM
20:35
Clear
46°F / 8°C 46°F / 8°C 100% 30.21 in
(1023 mb)
Calm - 10SM
20:15
Clear
45°F / 7°C 45°F / 7°C 100% 30.21 in
(1023 mb)
Calm - 7SM
19:55
Clear
45°F / 7°C 45°F / 7°C 100% 30.21 in
(1023 mb)
Calm - 1SM
19:35
Clear
43°F / 6°C 43°F / 6°C 100% 30.21 in
(1023 mb)
Calm - 2 1/2SM
19:15
Obscured
45°F / 7°C 45°F / 7°C 100% 30.21 in
(1023 mb)
Calm - 3/4SM
18:55
Clear
48°F / 9°C 48°F / 9°C 100% 30.18 in
(1022 mb)
Calm - 1 3/4SM
18:35
Clear
48°F / 9°C 48°F / 9°C 100% 30.18 in
(1022 mb)
Calm - 5SM
18:15
Obscured
50°F / 10°C 50°F / 10°C 100% 30.18 in
(1022 mb)
E 3.5 mph
(E 6 kph)
- 1/4SM
17:55
Obscured
48°F / 9°C 48°F / 9°C 100% 30.18 in
(1022 mb)
Calm - 1/4SM
17:35
Overcast
50°F / 10°C 50°F / 10°C 100% 30.15 in
(1021 mb)
Calm - 1/4SM
17:15
Overcast
52°F / 11°C 52°F / 11°C 100% 30.15 in
(1021 mb)
Calm - 1 3/4SM
16:55
Overcast
54°F / 12°C 54°F / 12°C 100% 30.15 in
(1021 mb)
Calm - 3SM
16:35
Overcast
54°F / 12°C 54°F / 12°C 100% 30.15 in
(1021 mb)
Calm - 3SM
16:15
Overcast
54°F / 12°C 54°F / 12°C 100% 30.15 in
(1021 mb)
W 3.5 mph
(W 6 kph)
- 4SM
15:55
Overcast
54°F / 12°C 54°F / 12°C 100% 30.15 in
(1021 mb)
SW 3.5 mph
(SW 6 kph)
- 5SM
15:35
Overcast
54°F / 12°C 54°F / 12°C 100% 30.12 in
(1020 mb)
SW 5.8 mph
(SW 9 kph)
- 5SM
15:15
Overcast
54°F / 12°C 54°F / 12°C 100% 30.12 in
(1020 mb)
SW 5.8 mph
(SW 9 kph)
- 4SM
14:55
Overcast
54°F / 12°C 54°F / 12°C 100% 30.12 in
(1020 mb)
SSE 6.9 mph
(SSE 11 kph)
- 4SM
14:35
Overcast
54°F / 12°C 54°F / 12°C 100% 30.09 in
(1019 mb)
S 11.5 mph
(S 19 kph)
- 2 1/2SM
14:15
Overcast
54°F / 12°C 54°F / 12°C 100% 30.09 in
(1019 mb)
SSE 9.2 mph
(SSE 15 kph)
- M1/4SM
13:55
Overcast
54°F / 12°C 54°F / 12°C 100% 30.09 in
(1019 mb)
SSE 8.1 mph
(SSE 13 kph)
- M1/4SM
13:35
Overcast
54°F / 12°C 54°F / 12°C 100% 30.09 in
(1019 mb)
S 8.1 mph
(S 13 kph)
- M1/4SM
13:15
Overcast
54°F / 12°C 54°F / 12°C 100% 30.09 in
(1019 mb)
SSE 8.1 mph
(SSE 13 kph)
- M1/4SM
12:55
Overcast
54°F / 12°C 54°F / 12°C 100% 30.09 in
(1019 mb)
SSE 9.2 mph
(SSE 15 kph)
- 1/4SM
12:35
Overcast
54°F / 12°C 54°F / 12°C 100% 30.09 in
(1019 mb)
S 10.4 mph
(S 17 kph)
- 1/4SM
12:15
Overcast
54°F / 12°C 54°F / 12°C 100% 30.09 in
(1019 mb)
S 10.4 mph
(S 17 kph)
- 1 3/4SM
11:55
Overcast
54°F / 12°C 54°F / 12°C 100% 30.09 in
(1019 mb)
S 8.1 mph
(S 13 kph)
- 1 1/4SM
11:35
Overcast
54°F / 12°C 54°F / 12°C 100% 30.09 in
(1019 mb)
S 12.7 mph
(S 20 kph)
- 5SM
11:15
Overcast
54°F / 12°C 54°F / 12°C 100% 30.09 in
(1019 mb)
S 11.5 mph
(S 19 kph)
- 10SM
10:55
Overcast
52°F / 11°C 52°F / 11°C 100% 30.09 in
(1019 mb)
S 11.5 mph
(S 19 kph)
0.03 in
(0.76 mm)
10SM
10:35
Overcast
52°F / 11°C 52°F / 11°C 100% 30.09 in
(1019 mb)
S 10.4 mph
(S 17 kph)
0.03 in
(0.76 mm)
5SM
10:15
Overcast
52°F / 11°C 52°F / 11°C 100% 30.12 in
(1020 mb)
S 6.9 mph
(S 11 kph)
0.02 in
(0.51 mm)
1SM
09:55
Overcast
52°F / 11°C 52°F / 11°C 100% 30.09 in
(1019 mb)
S 6.9 mph
(S 11 kph)
0.06 in
(1.52 mm)
1SM
09:35
Overcast
52°F / 11°C 52°F / 11°C 100% 30.09 in
(1019 mb)
Calm 0.02 in
(0.51 mm)
1SM
09:15
Overcast
52°F / 11°C 52°F / 11°C 100% 30.09 in
(1019 mb)
Calm 0.01 in
(0.25 mm)
1SM
08:55
Overcast
52°F / 11°C 52°F / 11°C 100% 30.06 in
(1018 mb)
SSW 3.5 mph
(SSW 6 kph)
0.04 in
(1.02 mm)
3/4SM
08:35
Overcast
52°F / 11°C 52°F / 11°C 100% 30.06 in
(1018 mb)
SSE 9.2 mph
(SSE 15 kph)
0.03 in
(0.76 mm)
1SM
08:15
Overcast
52°F / 11°C 52°F / 11°C 100% 30.06 in
(1018 mb)
S 10.4 mph
(S 17 kph)
0.02 in
(0.51 mm)
1 1/4SM
07:55
Overcast
50°F / 10°C 50°F / 10°C 100% 30.06 in
(1018 mb)
SSE 12.7 mph
(SSE 20 kph)
0.12 in
(3.05 mm)
1 1/4SM
07:35
Overcast
50°F / 10°C 50°F / 10°C 100% 30.06 in
(1018 mb)
SSE 11.5 mph
(SSE 19 kph)
0.08 in
(2.03 mm)
2SM
07:15
Overcast
50°F / 10°C 50°F / 10°C 100% 30.06 in
(1018 mb)
S 6.9 mph
(S 11 kph)
0.05 in
(1.27 mm)
2 1/2SM
06:55
Overcast
50°F / 10°C 50°F / 10°C 100% 30.06 in
(1018 mb)
SSE 11.5 mph
(SSE 19 kph)
0.22 in
(5.59 mm)
1 1/2SM
06:35
Overcast
50°F / 10°C 50°F / 10°C 100% 30.06 in
(1018 mb)
SSE 9.2 mph
(SSE 15 kph)
0.12 in
(3.05 mm)
1 3/4SM
06:15
Overcast
50°F / 10°C 48°F / 9°C 94% 30.06 in
(1018 mb)
SSE 13.8 mph
(SSE 22 kph)
0.06 in
(1.52 mm)
1 1/2SM
05:55
Overcast
50°F / 10°C 48°F / 9°C 94% 30.06 in
(1018 mb)
S 9.2 mph
(S 15 kph)
0.12 in
(3.05 mm)
1 3/4SM
05:35
Overcast
48°F / 9°C 48°F / 9°C 100% 30.06 in
(1018 mb)
SSE 10.4 mph
(SSE 17 kph)
0.05 in
(1.27 mm)
1 3/4SM
05:15
Overcast
48°F / 9°C 48°F / 9°C 100% 30.06 in
(1018 mb)
SSE 12.7 mph
(SSE 20 kph)
0.01 in
(0.25 mm)
2SM
04:55
Overcast
48°F / 9°C 48°F / 9°C 100% 30.06 in
(1018 mb)
SSE 11.5 mph
(SSE 19 kph)
0.10 in
(2.54 mm)
2SM
04:35
Overcast
48°F / 9°C 48°F / 9°C 100% 30.06 in
(1018 mb)
SSE 11.5 mph
(SSE 19 kph)
0.05 in
(1.27 mm)
1 3/4SM
04:15
Overcast
48°F / 9°C 48°F / 9°C 100% 30.06 in
(1018 mb)
SSE 11.5 mph
(SSE 19 kph)
0.02 in
(0.51 mm)
2SM
03:55
Overcast
50°F / 10°C 48°F / 9°C 94% 30.09 in
(1019 mb)
SE 10.4 mph
(SE 17 kph)
0.06 in
(1.52 mm)
1 3/4SM
03:35
Overcast
50°F / 10°C 46°F / 8°C 88% 30.06 in
(1018 mb)
SE 8.1 mph
(SE 13 kph)
0.01 in
(0.25 mm)
3SM
03:15
Overcast
52°F / 11°C 46°F / 8°C 82% 30.06 in
(1018 mb)
SSE 9.2 mph
(SSE 15 kph)
- 5SM
02:55
Overcast
52°F / 11°C 46°F / 8°C 82% 30.09 in
(1019 mb)
SSE 10.4 mph
(SSE 17 kph)
- 10SM
02:35
Overcast
52°F / 11°C 46°F / 8°C 82% 30.09 in
(1019 mb)
SE 10.4 mph
(SE 17 kph)
- 10SM
02:15
Overcast
50°F / 10°C 48°F / 9°C 94% 30.12 in
(1020 mb)
SE 8.1 mph
(SE 13 kph)
- 6SM
01:55
Overcast
52°F / 11°C 46°F / 8°C 82% 30.12 in
(1020 mb)
SE 9.2 mph
(SE 15 kph)
0.01 in
(0.25 mm)
7SM
01:35
Overcast
52°F / 11°C 48°F / 9°C 88% 30.12 in
(1020 mb)
SSE 6.9 mph
(SSE 11 kph)
- 5SM
01:15
Overcast
52°F / 11°C 46°F / 8°C 82% 30.15 in
(1021 mb)
SSE 4.6 mph
(SSE 7 kph)
- 10SM
00:55
Overcast
52°F / 11°C 46°F / 8°C 82% 30.12 in
(1020 mb)
SE 6.9 mph
(SE 11 kph)
- 10SM
00:35
Overcast
52°F / 11°C 48°F / 9°C 88% 30.12 in
(1020 mb)
SE 6.9 mph
(SE 11 kph)
- 10SM
00:15
Overcast
52°F / 11°C 48°F / 9°C 88% 30.12 in
(1020 mb)
SE 6.9 mph
(SE 11 kph)
- 10SM
Time Weather Temperature Dewpoint Humidity Pressure Winds Precip Visibility


Weather for websites

WeatherForYou.com, LLC is not responsible for any damages or problems caused by this service. Current weather conditions are obtained from the closest station including government and personal stations which may have varying degrees of accuracy. Weather forecasts are derived from the NOAA NDFD. Like all things, this site belongs to Jesus Christ... He just trusts me to maintain it. If you have any questions or comments email webmaster@weatherforyou.com

Copyright © 2014, WeatherForYou.com LLC. All rights reserved.